Terug naar catalogus

BOTSAT-1

ActiefCommunicatieSSO
NORAD 63216·PAYLOAD·🇧🇼 Botswana

Gelanceerd Mar 15, 2025 vanaf Vandenberg Space Force Base

Loading…

Volgende Passages (komende 24 uur)

TLE

VersSource: Space-Track

Epoch: Sep 14, 2026, 10:17 UTC

1 63216U 25052G   26257.42853098  .00006926  00000-0  25267-3 0  9991
2 63216  97.3749 150.4180 0003222 131.7374 228.4141 15.28460796 83587

Volg BOTSAT-1 in realtime met AllMySat

Download on the App Store